Bethel Airport Bethel US
ICAO: PABE
IATA:
Category: Medium
Scheduled Services:

Elevation: 126 ft
TransAlt. 18000 ft.

Airport Communications:
ATIS:119.8
ANCHORAGE CNTR:125.2
CTAF/BETHEL WX:118.7
KENAI RDO:122.65
GND:121.7
TWEB:114.1
NG OPS:124.65
TWR:118.7

PABE Zoom In..

Runways:

(A) RW 01L length 6400 ft width 150 ft
---- / hdg 9

(B) RW 01R length 4000 ft width 75 ft
---- / hdg 10

(C) RW 12 length 1858 ft width 75 ft
---- / hdg 114

(D) RW 19L length 4000 ft width 75 ft
---- / hdg 190

(E) RW 19R length 6400 ft width 150 ft
ILS 111.50 / hdg 189

(F) RW 30 length 1858 ft width 75 ft
---- / hdg 294

Location; PABE
Day. 19 / Time. 20.53 Zulu
* Altimeter: 29.43
* Temperature: 08° c. 46.4°f.
* Wind from: 060° Speed 09 kn.
Dewpoint: -01° c.
Visibility: 10 Statute Miles.
Clouds: Clear (automated report).

PABE 192053Z 06009KT 10SM CLR 08/M01 A2943 RMK AO2 SLP968 T00831011 51007


Wind From 060°
Speed 09 kn.

  YouTube Music Video
 
jpsmedia.com for Web Design  worldairports.se 2018   terms of use